{"data":{"norad_id":48918,"intl_designator":"2021-059AR","name":"ICEYE-X11","alt_names":[],"object_type":"PAYLOAD","status":"ACTIVE","operator":null,"country":"FIN","launch_date":"2021-06-30","launch_site_code":"AFETR","launch_vehicle":null,"mission":null,"orbit_class":"UNKNOWN","rcs_meters":null,"size_class":null,"mass_kg":null,"dimensions":null,"purposes":[],"wikipedia_slug":null,"has_3d_model":false,"image_url":null,"decayed_at":null,"tle_current":{"epoch":"2026-06-29T17:57:13.108032Z","epoch_age_seconds":7247617,"freshness":"OLD","line1":"1 48918U 21059AR  26180.74806838  .05159150  26278-5  10598-2 0  9999","line2":"2 48918  97.6106  22.1332 0009485 264.1222  95.8991 16.31092687280014","mean_motion":16.31092687,"eccentricity":0.0009485,"inclination_deg":97.6106,"raan_deg":22.1332,"arg_perigee_deg":264.1222,"mean_anomaly_deg":95.8991,"bstar":0.0010598,"rev_number":28001,"period_min":88.28437595711,"perigee_km":183.37544909097,"apogee_km":195.83445557455,"semimajor_km":6567.7419523328,"source":"CELESTRAK","updated_at":"2026-06-30T09:00:08.333080Z"}}}